Location: ????????
(60.4333°N, 46.4710°E)
Time: 03:45:56
(UTC+00:00)

SL-16 R/B - Pass Details

Date: 25 November 2020
Orbit: 842 x 846 km, 71.0° (Epoch: 19 January)

Event Time Altitude Azimuth Distance (km) Brightness Sun altitude
Rises 15:49:32 0° 282° (WNW) 3,408 6.7 -26.5°
Reaches altitude 10° 15:52:18 10° 293° (WNW) 2,474 5.5 -26.8°
Maximum altitude 15:57:14 29° 353° (N) 1,505 3.5 -27.4°
Enters shadow 15:58:10 28° 10° (N) 1,551 3.5 -27.5°
